�������l�o���
Date,Time,MP-1(��Sv/h),MP-2(��Sv/h),MP-3(��Sv/h),MP-4(��Sv/h),MP-5(��Sv/h),MP-6(��Sv/h),MP-7(��Sv/h),MP-8(��Sv/h),����,����(m/s),���J
2019/10/15,00:00,0.695,0.969,0.658,1.202,0.840,0.404,0.698,0.664,�k�k��,5.6,��
2019/10/15,00:10,0.695,0.971,0.658,1.203,0.836,0.405,0.698,0.663,�k�k��,4.9,��
2019/10/15,00:20,0.696,0.972,0.659,1.204,0.840,0.405,0.698,0.663,�k�k��,5.3,��
2019/10/15,00:30,0.694,0.974,0.657,1.205,0.841,0.404,0.699,0.665,�k�k��,5.5,��
2019/10/15,00:40,0.695,0.974,0.657,1.205,0.841,0.404,0.698,0.666,�k�k��,4.2,��
2019/10/15,00:50,0.695,0.975,0.657,1.206,0.842,0.403,0.700,0.667,�k�k��,5.0,��
2019/10/15,01:00,0.696,0.976,0.656,1.207,0.843,0.404,0.698,0.667,�k�k��,4.2,��
2019/10/15,01:10,0.694,0.976,0.654,1.206,0.842,0.405,0.698,0.666,�k�k��,4.2,��
2019/10/15,01:20,0.696,0.976,0.657,1.206,0.842,0.404,0.700,0.667,�k�k��,4.7,��
2019/10/15,01:30,0.696,0.976,0.657,1.208,0.842,0.403,0.700,0.667,�k�k��,4.6,��
2019/10/15,01:40,0.695,0.978,0.658,1.207,0.844,0.404,0.702,0.666,�k�k��,3.9,��
2019/10/15,01:50,0.697,0.978,0.658,1.209,0.844,0.403,0.699,0.667,�k�k��,4.5,��
2019/10/15,02:00,0.694,0.979,0.656,1.209,0.844,0.403,0.701,0.667,�k�k��,4.1,��
2019/10/15,02:10,0.696,0.978,0.657,1.211,0.844,0.403,0.699,0.668,�k�k��,4.1,��
2019/10/15,02:20,0.696,0.979,0.658,1.211,0.845,0.404,0.703,0.667,�k�k��,4.0,��
2019/10/15,02:30,0.697,0.978,0.656,1.211,0.844,0.403,0.700,0.668,�k�k��,4.2,��
2019/10/15,02:40,0.696,0.980,0.658,1.213,0.846,0.403,0.698,0.666,�k�k��,4.9,��
2019/10/15,02:50,0.697,0.980,0.657,1.214,0.847,0.405,0.700,0.668,�k�k��,4.9,��
2019/10/15,03:00,0.697,0.979,0.658,1.212,0.845,0.402,0.699,0.668,�k�k��,3.9,��
2019/10/15,03:10,0.696,0.981,0.658,1.213,0.845,0.404,0.703,0.668,�k�k��,4.1,��
2019/10/15,03:20,0.697,0.980,0.657,1.213,0.847,0.404,0.701,0.669,�k�k��,4.5,��
2019/10/15,03:30,0.697,0.980,0.658,1.212,0.848,0.404,0.701,0.668,�k�k��,4.3,��
2019/10/15,03:40,0.697,0.980,0.658,1.212,0.845,0.404,0.702,0.669,�k�k��,4.9,��
2019/10/15,03:50,0.697,0.981,0.658,1.214,0.844,0.404,0.703,0.667,�k�k��,4.4,��
2019/10/15,04:00,0.698,0.979,0.658,1.214,0.846,0.404,0.701,0.668,�k�k��,4.7,��
2019/10/15,04:10,0.697,0.983,0.661,1.216,0.848,0.406,0.700,0.669,�k�k��,5.0,��
2019/10/15,04:20,0.700,0.981,0.659,1.213,0.848,0.404,0.703,0.671,�k�k��,4.0,��
2019/10/15,04:30,0.697,0.982,0.660,1.215,0.849,0.404,0.703,0.669,�k�k��,3.5,��
2019/10/15,04:40,0.699,0.981,0.658,1.215,0.848,0.404,0.702,0.669,�k�k��,2.7,��
2019/10/15,04:50,0.700,0.980,0.658,1.214,0.850,0.406,0.703,0.671,�k��,2.2,��
2019/10/15,05:00,0.699,0.981,0.659,1.216,0.850,0.405,0.702,0.669,�k�k��,2.8,��
2019/10/15,05:10,0.699,0.986,0.661,1.218,0.850,0.404,0.704,0.670,�k��,3.1,��
2019/10/15,05:20,0.699,0.984,0.660,1.217,0.849,0.405,0.703,0.669,�k�k��,3.4,��
2019/10/15,05:30,0.697,0.984,0.659,1.217,0.849,0.405,0.705,0.670,�k,4.2,��
2019/10/15,05:40,0.699,0.983,0.659,1.215,0.849,0.407,0.703,0.668,�k,4.9,��
2019/10/15,05:50,0.700,0.985,0.660,1.217,0.850,0.404,0.703,0.669,�k,5.5,��
2019/10/15,06:00,0.698,0.982,0.659,1.217,0.851,0.406,0.703,0.669,�k�k��,6.0,��
2019/10/15,06:10,0.698,0.984,0.658,1.217,0.851,0.405,0.702,0.670,�k,5.2,��
2019/10/15,06:20,0.698,0.983,0.660,1.219,0.851,0.404,0.705,0.668,�k,5.7,��
2019/10/15,06:30,0.700,0.983,0.660,1.215,0.852,0.406,0.703,0.669,�k,6.0,��
2019/10/15,06:40,0.700,0.985,0.661,1.217,0.851,0.405,0.704,0.671,�k,5.5,��
2019/10/15,06:50,0.700,0.984,0.661,1.217,0.854,0.405,0.703,0.670,�k,4.9,��
2019/10/15,07:00,0.700,0.985,0.660,1.219,0.851,0.406,0.705,0.670,�k�k��,3.8,��
2019/10/15,07:10,0.700,0.985,0.660,1.218,0.852,0.404,0.705,0.669,�k�k��,2.6,��
2019/10/15,07:20,0.698,0.986,0.660,1.221,0.852,0.405,0.705,0.669,�k,3.5,��
2019/10/15,07:30,0.698,0.987,0.659,1.219,0.851,0.406,0.705,0.670,�k�k��,3.5,��
2019/10/15,07:40,0.700,0.986,0.661,1.217,0.852,0.407,0.703,0.670,�k�k��,3.5,��
2019/10/15,07:50,0.699,0.985,0.660,1.220,0.853,0.406,0.703,0.670,�k,4.5,��
2019/10/15,08:00,0.699,0.983,0.660,1.217,0.850,0.407,0.704,0.670,�k,3.8,��
2019/10/15,08:10,0.701,0.986,0.660,1.222,0.850,0.408,0.702,0.670,�k,5.2,��
2019/10/15,08:20,0.700,0.984,0.660,1.219,0.852,0.405,0.703,0.668,�k,6.1,��
2019/10/15,08:30,0.701,0.983,0.658,1.220,0.852,0.405,0.704,0.672,�k,5.3,��
2019/10/15,08:40,0.701,0.982,0.660,1.220,0.851,0.407,0.705,0.671,�k,8.0,��
2019/10/15,08:50,0.701,0.983,0.662,1.222,0.855,0.404,0.702,0.671,�k,6.4,��
2019/10/15,09:00,0.700,0.983,0.659,1.224,0.853,0.406,0.705,0.672,�k,7.4,��
2019/10/15,09:10,0.702,0.986,0.660,1.221,0.854,0.404,0.705,0.672,�k,9.9,��
2019/10/15,09:20,0.696,0.986,0.662,1.224,0.853,0.405,0.706,0.673,�k,8.9,��
2019/10/15,09:30,0.697,0.984,0.660,1.224,0.854,0.406,0.705,0.671,�k,8.6,��
2019/10/15,09:40,0.697,0.983,0.661,1.225,0.855,0.404,0.707,0.670,�k,7.8,��
2019/10/15,09:50,0.698,0.984,0.662,1.222,0.855,0.403,0.705,0.668,�k,8.3,��
2019/10/15,10:00,0.700,0.986,0.663,1.225,0.854,0.402,0.708,0.668,�k�k��,8.2,��
2019/10/15,10:10,0.699,0.982,0.660,1.226,0.856,0.402,0.707,0.669,�k,8.8,��
2019/10/15,10:20,0.701,0.985,0.661,1.225,0.855,0.404,0.705,0.669,�k,8.8,��
2019/10/15,10:30,0.698,0.984,0.662,1.227,0.855,0.404,0.707,0.669,�k,7.5,��
2019/10/15,10:40,0.700,0.987,0.662,1.227,0.857,0.404,0.706,0.668,�k,8.3,��
2019/10/15,10:50,0.702,0.988,0.662,1.226,0.858,0.403,0.705,0.670,�k,8.8,��
2019/10/15,11:00,0.702,0.984,0.662,1.226,0.858,0.402,0.707,0.671,�k�k��,8.3,��
2019/10/15,11:10,0.703,0.983,0.662,1.230,0.857,0.404,0.706,0.669,�k�k��,8.2,��
2019/10/15,11:20,0.701,0.989,0.661,1.225,0.857,0.402,0.707,0.669,�k,6.9,��
2019/10/15,11:30,0.701,0.987,0.663,1.227,0.857,0.404,0.708,0.668,�k,8.5,��
2019/10/15,11:40,0.703,0.989,0.661,1.229,0.857,0.405,0.707,0.670,�k,6.6,��
2019/10/15,11:50,0.701,0.988,0.659,1.228,0.859,0.404,0.706,0.671,�k,7.4,��
2019/10/15,12:00,0.704,0.991,0.663,1.229,0.858,0.404,0.706,0.671,�k,7.1,��
2019/10/15,12:10,0.702,0.993,0.662,1.231,0.857,0.405,0.705,0.669,�k,8.0,�L
2019/10/15,12:20,0.703,0.993,0.662,1.231,0.860,0.403,0.707,0.670,�k,7.1,��
2019/10/15,12:30,0.705,0.991,0.661,1.230,0.858,0.403,0.705,0.671,�k,7.7,��
2019/10/15,12:40,0.704,0.994,0.663,1.230,0.859,0.404,0.706,0.671,�k,7.4,�L
2019/10/15,12:50,0.701,0.991,0.661,1.230,0.858,0.405,0.707,0.671,�k,6.3,�L
2019/10/15,13:00,0.704,0.982,0.663,1.230,0.859,0.405,0.710,0.671,�k,5.2,��
2019/10/15,13:10,0.704,0.979,0.664,1.230,0.861,0.404,0.708,0.670,�k�k��,6.1,��
2019/10/15,13:20,0.703,0.988,0.664,1.233,0.862,0.404,0.708,0.671,�k�k��,6.6,��
2019/10/15,13:30,0.703,0.989,0.664,1.232,0.863,0.404,0.708,0.673,�k�k��,6.3,��
2019/10/15,13:40,0.705,0.989,0.662,1.231,0.863,0.403,0.707,0.670,�k�k��,6.3,��
2019/10/15,13:50,0.705,0.990,0.662,1.231,0.861,0.405,0.710,0.671,�k�k��,6.0,��
2019/10/15,14:00,0.705,0.993,0.663,1.231,0.862,0.405,0.709,0.671,�k�k��,5.7,��
2019/10/15,14:10,0.703,0.992,0.661,1.231,0.863,0.404,0.708,0.670,�k�k��,5.8,��
2019/10/15,14:20,0.704,0.992,0.666,1.233,0.863,0.404,0.708,0.672,�k�k��,6.4,��
2019/10/15,14:30,0.705,0.992,0.665,1.230,0.863,0.404,0.708,0.670,�k�k��,6.0,��
2019/10/15,14:40,0.705,0.992,0.664,1.232,0.862,0.405,0.709,0.671,�k,6.1,��
2019/10/15,14:50,0.705,0.995,0.663,1.235,0.862,0.405,0.707,0.672,�k,6.4,��
2019/10/15,15:00,0.706,0.994,0.664,1.233,0.863,0.405,0.710,0.669,�k,5.7,��
2019/10/15,15:10,0.706,0.995,0.665,1.231,0.864,0.405,0.708,0.672,�k,5.5,��
2019/10/15,15:20,0.702,0.994,0.664,1.238,0.863,0.406,0.709,0.671,�k,5.2,��
2019/10/15,15:30,0.705,0.994,0.665,1.233,0.863,0.406,0.710,0.671,�k,6.0,��
2019/10/15,15:40,0.703,0.993,0.662,1.230,0.863,0.406,0.709,0.671,�k,5.5,��
2019/10/15,15:50,0.705,0.998,0.665,1.233,0.865,0.406,0.708,0.671,�k,5.8,��
2019/10/15,16:00,0.705,0.996,0.663,1.233,0.863,0.407,0.709,0.671,�k�k��,5.2,��
2019/10/15,16:10,0.706,0.998,0.666,1.235,0.863,0.406,0.708,0.671,�k,6.6,��
2019/10/15,16:20,0.705,1.001,0.667,1.232,0.864,0.407,0.708,0.672,�k,7.2,��
2019/10/15,16:30,0.706,0.999,0.668,1.235,0.866,0.406,0.710,0.672,�k,5.8,��
2019/10/15,16:40,0.705,1.001,0.666,1.234,0.866,0.407,0.709,0.672,�k�k��,4.4,��
2019/10/15,16:50,0.706,1.001,0.668,1.234,0.866,0.407,0.710,0.673,�k�k��,3.9,��
2019/10/15,17:00,0.706,1.001,0.668,1.235,0.867,0.406,0.709,0.672,�k�k��,5.5,��
2019/10/15,17:10,0.707,1.001,0.667,1.235,0.865,0.408,0.708,0.674,�k�k��,4.9,��
2019/10/15,17:20,0.706,1.003,0.667,1.233,0.867,0.408,0.707,0.673,�k�k��,4.9,��
2019/10/15,17:30,0.706,1.001,0.667,1.234,0.868,0.408,0.710,0.674,�k�k��,5.3,��
2019/10/15,17:40,0.705,1.000,0.667,1.233,0.865,0.406,0.709,0.676,�k�k��,5.5,��
2019/10/15,17:50,0.707,1.001,0.669,1.235,0.868,0.407,0.709,0.675,�k�k��,4.9,��
2019/10/15,18:00,0.708,1.001,0.668,1.234,0.869,0.407,0.710,0.674,�k�k��,5.0,��
2019/10/15,18:10,0.703,1.001,0.666,1.235,0.868,0.407,0.709,0.673,�k��,4.4,��
2019/10/15,18:20,0.708,1.002,0.670,1.236,0.868,0.406,0.709,0.675,�k��,5.3,��
2019/10/15,18:30,0.706,1.003,0.667,1.235,0.868,0.407,0.710,0.675,�k��,5.7,��
2019/10/15,18:40,0.705,1.001,0.666,1.233,0.866,0.406,0.708,0.674,�k��,5.3,��
2019/10/15,18:50,0.706,1.001,0.668,1.235,0.867,0.407,0.709,0.673,�k��,6.0,��
2019/10/15,19:00,0.708,1.001,0.667,1.234,0.869,0.407,0.709,0.674,�k�k��,6.0,��
2019/10/15,19:10,0.707,1.001,0.667,1.235,0.866,0.407,0.709,0.672,�k��,6.1,��
2019/10/15,19:20,0.706,1.003,0.667,1.233,0.868,0.406,0.708,0.674,�k��,6.9,��
2019/10/15,19:30,0.706,1.002,0.667,1.235,0.865,0.407,0.709,0.674,�k��,7.1,��
2019/10/15,19:40,0.706,1.002,0.667,1.238,0.867,0.407,0.710,0.674,�k��,8.5,��
2019/10/15,19:50,0.707,1.002,0.669,1.236,0.867,0.405,0.710,0.674,�k��,8.0,��
2019/10/15,20:00,0.706,1.004,0.669,1.233,0.867,0.407,0.709,0.674,�k��,7.4,��
2019/10/15,20:10,0.706,1.002,0.666,1.236,0.868,0.405,0.710,0.673,�k��,7.2,��
2019/10/15,20:20,0.706,1.004,0.669,1.233,0.868,0.406,0.710,0.673,�k��,6.9,��
2019/10/15,20:30,0.706,1.002,0.666,1.236,0.868,0.406,0.708,0.675,�k��,6.6,��
2019/10/15,20:40,0.706,1.002,0.669,1.235,0.868,0.406,0.710,0.674,�k��,6.3,��
2019/10/15,20:50,0.706,1.001,0.666,1.234,0.868,0.408,0.708,0.673,�k��,5.6,��
2019/10/15,21:00,0.706,1.002,0.669,1.237,0.867,0.407,0.708,0.675,�k��,6.4,��
2019/10/15,21:10,0.706,1.002,0.667,1.235,0.866,0.406,0.710,0.674,�k��,5.5,��
2019/10/15,21:20,0.706,1.000,0.668,1.237,0.869,0.406,0.710,0.674,�k��,5.7,��
2019/10/15,21:30,0.706,1.002,0.669,1.236,0.870,0.407,0.710,0.675,�k��,5.7,��
2019/10/15,21:40,0.706,1.002,0.667,1.236,0.868,0.406,0.710,0.673,�k��,6.1,��
2019/10/15,21:50,0.706,1.002,0.668,1.236,0.867,0.406,0.710,0.673,�k��,6.4,��
2019/10/15,22:00,0.708,1.002,0.667,1.237,0.870,0.406,0.709,0.676,�k�k��,6.7,��
2019/10/15,22:10,0.707,1.002,0.668,1.234,0.866,0.407,0.710,0.673,�k�k��,6.3,��
2019/10/15,22:20,0.708,1.003,0.670,1.235,0.869,0.406,0.710,0.674,�k�k��,5.5,��
2019/10/15,22:30,0.707,1.005,0.668,1.236,0.867,0.406,0.711,0.672,�k��,5.8,��
2019/10/15,22:40,0.706,1.001,0.669,1.237,0.868,0.407,0.713,0.675,�k��,6.6,��
2019/10/15,22:50,0.707,1.000,0.669,1.237,0.868,0.406,0.709,0.674,�k��,6.6,��
2019/10/15,23:00,0.705,1.003,0.667,1.237,0.867,0.406,0.711,0.676,�k�k��,6.3,��
2019/10/15,23:10,0.706,1.003,0.669,1.238,0.868,0.408,0.710,0.676,�k��,5.5,��
2019/10/15,23:20,0.706,1.003,0.666,1.237,0.868,0.406,0.710,0.674,�k�k��,5.5,��
2019/10/15,23:30,0.707,1.004,0.668,1.239,0.869,0.408,0.709,0.673,�k�k��,5.3,��
2019/10/15,23:40,0.707,1.003,0.667,1.235,0.869,0.407,0.709,0.675,�k�k��,5.2,��
2019/10/15,23:50,0.705,1.004,0.668,1.236,0.867,0.408,0.709,0.673,�k�k��,5.5,��
